Regional Weather Roundup
Issued by NWS Green Bay, WI

Home | Current Version | Previous Version | Graphics & Text | Print | Product List | Glossary Off
Versions: 1 2 3 4 5 6 7 8 9 10 11 12 13 14 15 16 17 18 19 20 21 22 23 24 25 26 27 28 29 30 31 32 33 34 35 36 37 38 39 40 41 42 43 44 45 46 47 48 49 50

760
ASUS43 KGRB 120700
RWRGRB

NORTH-CENTRAL AND NORTHEAST WISCONSIN REGIONAL WEATHER ROUNDUP
NATIONAL WEATHER SERVICE GREEN BAY WI
100 AM CST TUE DEC 12 2017

WIZ005-009-010>012-018-019-120800-
NORTH CENTRAL WISCONSIN

CITY           SKY/WX    TMP DP  RH WIND       PRES   REMARKS
IRONWOOD       FLURRIES  12   6  77 NW12      30.05F WCI  -2
MANITOWISH WTR NOT AVBL
ARBOR VITAE    NOT AVBL
EAGLE RIVER    NOT AVBL
LAND O LAKES   NOT AVBL
RHINELANDER    MOCLDY    12   5  73 NW12G21   29.98R WCI  -2
PHILLIPS       NOT AVBL
ANTIGO         NOT AVBL
TOMAHAWK       NOT AVBL
MERRILL        NOT AVBL
$$

WIZ013-073-120800-
NORTHEAST WISCONSIN

CITY           SKY/WX    TMP DP  RH WIND       PRES   REMARKS
IRON MOUNTAIN  FLURRIES  12   5  73 NW16G22   29.94S WCI  -5
MARINETTE      PTCLDY    15   3  59 N14G22    29.98R WCI   0
$$

WIZ017-030-035>037-045-120800-
CENTRAL WISCONSIN

CITY           SKY/WX    TMP DP  RH WIND       PRES   REMARKS
MEDFORD        NOT AVBL
WAUSAU         CLOUDY    16   4  59 NW14G23   30.01R WCI   2
MOSINEE        NOT AVBL
MARSHFIELD     PTCLDY    13   4  67 N15       30.03R WCI  -3
WISC RAPIDS    CLOUDY    17   7  64 N13G22    30.06R WCI   4
STEVENS POINT  NOT AVBL
WAUPACA        NOT AVBL
SHAWANO        NOT AVBL
CLINTONVILLE   NOT AVBL
WAUTOMA        CLOUDY    18   7  62 NW15G25   30.03R WCI   4
$$

WIZ038-039-048-051-120800-
FOX VALLEY

CITY           SKY/WX    TMP DP  RH WIND       PRES   REMARKS
NWS GREEN BAY  MOCLDY    19   7  59 NW21G26   29.99R WCI   3
APPLETON       NOT AVBL
OSHKOSH        CLOUDY    20   8  60 NW16G25   29.98R WCI   6
FOND DU LAC    CLOUDY    21   8  57 N13       29.99R WCI   9
$$

WIZ022-050-052-120800-
EAST CENTRAL WISCONSIN

CITY           SKY/WX    TMP DP  RH WIND       PRES   REMARKS
EPHRAIM        NOT AVBL
WASHINGTON ISL NOT AVBL
STURGEON BAY   MOCLDY    17   6  62 NW21G32   29.95R WCI   0
MANITOWOC      FLURRIES  19  10  68 NW21      29.95S WCI   3
SHEBOYGAN      PTCLDY    19   8  62 N18G28    29.95R WCI   4
$$

LMZ563-521-522-541>543-120800-
LAKESHORE

STATION/POSITION TIME  TEMP    WIND        PRES    VSBY  WAVE
                       AIR SEA DIR/SP/G                  HT/PER
                 (UTC) (F)     (DEG/KT/KT) (MB)    (MI)  (FT/S)
SHEBOYGAN LKSHOR 0600   22     340/ 21/ 26 1014.6R
KEWAUNEE LKSHORE 0630   18     340/ 17/ 25 1013.5R
NORTHPORT PIER   0640   21     320/ 29/ 36 1013.2R
MENOMINEE LKSHOR 0624   18     310/ 13/ 18 1014.5
$$




USA.gov is the U.S. government's official web portal to all federal, state and local government web resources and services.